Theta_e
295 295 296 297 297 296 296 297 299 299 299 301 302 304 307 307 309 311 307 302 305 308 309 309 310 311 310 308 306 307 307 307 307 308 309 308 308 311 311 311 312 312 311 314 317 320 320 320 322 323 322 321 320 319 319 318 321 325 323 321 320 324 328 326 321 319 321 322 318 318 320 323 328 325 322 325 326 325 331 332 330 327 323 326 331 327 321
296 296 297 297 296 296 297 298 298 299 300 300 301 304 306 306 308 309 306 304 309 310 309 310 312 313 312 309 308 309 308 308 308 309 310 309 311 314 312 310 311 312 312 314 314 317 320 319 319 321 322 321 319 319 320 322 324 325 323 321 320 320 322 324 324 321 321 323 321 320 322 324 327 324 320 321 324 326 325 324 330 329 320 324 332 326 320
296 297 297 296 296 297 298 298 298 299 300 300 302 304 306 306 308 308 305 307 310 310 311 314 315 315 315 314 315 313 312 310 309 310 310 308 310 313 311 309 310 312 314 316 315 317 321 320 319 322 324 321 318 319 320 323 324 325 322 320 322 323 321 324 328 325 323 326 325 324 324 323 324 322 319 320 323 326 322 321 333 333 319 320 328 324 318
296 296 296 296 296 297 298 298 299 299 300 301 303 305 306 307 309 309 308 309 310 311 311 311 314 316 315 315 316 315 314 313 309 309 309 308 309 310 309 309 311 313 316 317 318 317 319 320 320 323 324 321 317 318 320 322 323 324 320 318 323 325 320 320 325 325 325 327 325 322 322 325 325 320 318 318 318 321 326 328 333 330 321 321 323 320 318
296 296 296 296 296 298 298 298 299 300 301 302 304 306 307 308 310 311 310 311 311 311 310 310 314 315 314 315 315 314 315 314 309 309 309 308 310 311 309 310 312 313 315 318 319 317 318 319 319 320 321 319 317 317 318 319 321 322 319 317 323 327 322 318 319 319 320 320 318 318 318 320 319 317 317 317 316 321 330 329 322 320 324 326 321 318 317
296 296 296 296 297 298 299 299 299 300 302 303 305 306 307 308 309 310 311 312 312 312 311 311 313 313 312 314 315 313 315 313 310 310 310 309 310 314 313 311 312 314 316 320 319 317 319 319 317 320 320 320 322 320 317 316 317 320 321 318 322 327 323 318 318 317 316 316 316 316 316 315 315 315 316 316 316 320 323 320 316 318 325 326 320 316 314
296 295 296 297 298 299 299 299 299 300 303 305 306 307 307 308 309 310 311 312 312 312 311 311 313 313 313 315 316 314 314 313 310 311 313 312 310 313 314 311 312 315 318 322 321 318 321 320 316 318 320 320 323 322 319 317 315 320 326 322 319 322 321 317 316 316 315 315 315 314 314 314 313 313 314 314 315 315 316 315 314 315 318 318 314 312 311
295 295 296 298 299 299 299 299 299 301 304 306 306 307 308 309 310 310 311 311 311 311 311 312 314 315 313 316 317 314 313 312 309 309 312 313 310 310 312 309 309 311 313 318 319 316 320 322 316 317 320 319 320 321 320 319 317 321 327 324 318 319 320 317 315 316 315 313 313 313 313 313 313 312 312 313 313 313 313 314 313 313 313 311 310 310 309
295 295 297 299 299 299 299 299 301 303 305 306 307 308 308 309 311 311 312 313 312 311 311 312 314 316 314 313 314 314 313 310 309 308 309 311 311 310 311 310 310 310 310 313 313 311 315 317 313 315 319 316 315 316 315 317 322 323 323 323 321 321 320 317 316 317 316 314 313 313 313 314 314 312 312 312 312 312 312 311 312 313 313 312 312 311 309
295 296 298 299 299 299 300 301 303 304 306 306 307 308 308 309 311 312 312 314 313 313 313 311 312 315 316 312 310 312 313 310 311 312 308 307 309 309 309 310 312 312 311 311 310 309 310 310 308 309 312 310 309 311 312 315 322 324 322 322 321 320 319 317 318 318 316 314 314 315 317 320 318 313 311 311 311 311 311 310 310 311 312 313 314 311 308
295 296 299 299 299 299 300 302 304 305 306 307 306 306 307 309 311 310 311 314 312 310 311 312 313 314 313 310 308 310 312 312 314 314 310 307 308 308 308 309 312 313 311 309 309 308 308 309 309 311 312 311 310 310 311 312 315 319 323 323 319 316 317 318 318 317 315 314 314 316 320 321 317 311 310 311 310 310 311 310 308 308 309 310 309 307 306
295 297 299 300 300 300 300 302 305 306 307 306 305 305 306 307 310 309 310 315 314 310 310 312 311 309 307 307 308 310 311 310 310 309 309 308 308 308 307 308 312 312 308 308 310 310 309 310 311 312 312 311 310 310 312 314 313 312 315 319 318 317 318 318 317 316 315 314 314 318 319 316 311 308 308 309 308 308 308 308 308 307 307 306 306 306 305
295 298 299 300 300 300 300 301 304 306 307 304 303 305 306 306 309 309 309 314 317 313 311 309 306 305 305 306 307 307 307 307 307 307 308 308 307 308 307 308 311 309 307 308 309 309 311 314 314 312 312 313 314 312 312 315 315 313 312 314 316 318 318 317 316 315 316 316 316 317 315 311 309 308 308 308 309 308 309 309 308 307 307 306 306 305 304
296 298 300 300 299 300 300 301 303 305 304 303 303 304 306 306 308 309 308 311 314 310 308 309 308 306 307 307 306 307 306 307 307 306 307 307 307 307 307 307 308 307 307 308 308 308 313 317 315 312 312 317 318 315 314 314 314 315 315 312 313 317 318 316 316 315 314 315 314 314 312 311 310 310 309 310 310 310 310 309 307 306 307 306 305 304 303
297 299 300 300 299 299 300 301 303 303 303 304 305 305 306 307 308 308 307 308 312 311 307 307 308 306 306 306 306 308 310 310 309 308 307 307 306 306 307 306 306 307 307 308 311 315 317 317 315 313 313 315 314 313 315 318 314 312 312 309 311 316 318 317 317 315 313 313 313 312 313 313 312 310 309 309 309 309 308 309 308 306 306 306 305 304 303
298 299 300 300 299 299 300 301 303 304 303 305 306 306 307 308 308 309 308 307 310 311 306 304 305 304 305 306 305 307 310 312 313 313 311 308 306 306 307 306 306 307 307 308 313 319 321 317 316 317 314 312 312 312 314 317 316 313 313 311 311 313 314 316 317 315 313 314 313 313 314 312 311 310 308 308 309 308 308 311 310 305 304 306 306 304 303
298 299 300 300 299 299 301 302 304 305 305 306 306 306 308 309 308 309 309 308 307 306 304 305 305 305 307 308 307 306 307 309 311 311 310 307 306 306 307 307 308 308 309 312 315 320 322 316 315 317 312 309 312 313 312 315 317 317 318 318 316 315 314 315 315 314 313 313 312 312 311 310 309 309 307 307 309 308 310 315 312 304 303 305 305 304 304
298 300 300 299 299 299 301 303 305 306 306 306 306 306 307 308 308 308 309 309 307 304 305 306 306 306 308 308 308 307 307 308 309 310 310 308 306 307 307 307 309 308 309 316 321 321 319 315 314 316 313 309 311 313 312 315 317 313 312 313 314 314 313 313 313 313 312 311 310 309 309 308 307 308 307 307 309 310 313 314 308 302 302 303 303 303 303
298 300 300 299 299 300 301 304 306 306 306 306 305 306 306 306 307 307 307 307 305 304 305 306 306 307 307 308 308 308 309 309 309 314 317 312 307 308 308 307 309 308 308 315 319 317 316 313 311 314 315 312 312 311 311 312 313 310 310 311 312 313 312 312 312 311 309 308 308 309 309 307 307 307 306 307 310 312 310 307 303 302 302 302 301 302 302
299 300 300 299 299 300 301 304 306 305 305 306 306 306 306 305 305 306 306 304 303 304 304 305 306 307 307 308 309 308 309 309 308 314 320 315 308 309 310 310 310 308 310 316 316 312 315 314 310 311 315 313 310 310 309 308 308 307 309 310 309 309 310 311 310 308 308 308 309 312 311 307 306 307 307 307 309 308 304 302 302 302 301 301 301 301 301
300 300 300 299 300 301 302 303 305 305 306 307 307 306 306 306 306 306 306 305 304 304 304 305 306 307 307 308 309 309 310 310 308 310 313 311 308 310 313 313 312 309 311 316 314 309 312 314 310 310 311 310 309 310 310 309 308 306 306 307 306 307 308 309 307 305 307 309 309 310 309 305 305 307 307 305 304 303 302 301 302 301 301 301 301 301 301
300 301 299 299 301 301 302 303 305 306 306 306 306 306 306 306 305 305 304 304 304 303 304 305 306 307 307 308 309 310 309 310 309 309 309 308 309 311 311 311 311 310 309 312 313 310 311 312 312 311 311 310 309 308 308 310 311 307 305 307 308 307 307 307 306 304 305 306 306 305 304 304 304 305 303 302 302 302 301 301 301 301 301 301 301 301 301
301 300 299 300 301 301 302 304 305 306 306 306 305 305 304 304 304 303 303 303 303 303 304 304 306 307 308 308 309 310 309 310 310 309 309 309 309 310 310 309 310 310 309 310 312 312 312 312 311 312 312 310 309 308 307 309 310 307 305 307 307 305 305 306 306 305 305 305 304 304 303 303 303 302 302 302 302 301 301 301 301 301 301 301 301 301 301
301 300 299 300 301 301 302 305 306 306 306 306 305 304 304 304 303 303 304 304 304 304 304 304 305 306 307 307 309 310 310 310 310 309 309 309 309 309 310 309 310 310 309 309 309 310 310 309 308 309 310 308 308 310 309 308 307 306 306 307 307 305 306 306 306 305 305 305 304 303 303 303 302 302 302 302 301 301 301 301 301 301 301 301 301 301 301
301 300 300 300 300 301 304 306 307 306 306 306 305 304 304 304 304 304 304 304 304 304 304 304 304 305 306 307 308 309 310 310 310 309 309 309 309 310 310 309 309 309 308 308 309 308 308 308 308 310 309 306 307 309 308 306 307 307 307 308 308 306 305 305 305 305 305 305 304 303 303 302 302 302 302 301 301 301 301 301 301 301 301 301 301 301 301
301 299 300 300 300 302 304 305 306 307 306 306 306 305 305 305 304 304 304 304 304 304 304 305 305 305 306 307 308 308 309 309 309 309 309 309 309 309 309 308 308 308 307 308 308 306 306 307 309 310 309 306 307 308 307 306 307 307 306 307 306 305 305 305 304 304 304 304 303 302 302 302 302 302 302 302 301 301 301 301 301 300 300 301 301 300 300
300 299 299 300 300 303 304 305 306 307 307 306 307 306 306 305 304 304 304 304 304 304 304 304 305 306 307 307 307 307 307 308 309 309 309 309 309 309 309 308 308 308 307 307 307 306 305 306 307 307 307 306 305 305 305 305 306 306 306 305 304 304 305 303 303 304 304 303 303 302 301 301 301 302 302 301 301 301 301 301 301 300 300 300 299 299 298
300 299 299 299 300 303 304 304 306 307 306 306 307 306 306 306 304 304 304 304 305 305 304 304 305 305 306 306 306 307 307 307 308 309 309 310 310 309 308 307 308 308 307 306 306 305 305 306 306 305 305 306 305 305 305 305 306 307 305 304 304 304 303 303 303 304 303 303 302 301 301 301 301 301 301 301 300 300 300 300 300 299 298 298 297 297 297
299 299 299 299 300 303 304 304 305 306 306 306 306 306 306 305 304 304 304 304 304 305 305 305 306 305 305 305 306 307 307 307 308 308 308 309 308 307 307 307 307 307 307 306 306 305 304 305 305 305 305 305 306 307 307 307 307 305 303 303 304 303 303 303 303 302 302 302 302 301 301 301 301 301 300 300 299 299 299 298 298 298 297 297 297 297 297
298 298 300 300 300 303 304 304 305 306 306 306 306 305 305 305 304 304 304 304 305 305 305 306 307 305 304 305 305 306 307 307 307 307 307 307 307 306 307 307 306 306 306 306 305 304 303 304 303 304 304 304 305 307 307 306 305 304 303 303 304 303 303 303 302 302 302 302 301 301 301 301 301 300 300 300 299 299 298 298 298 298 297 297 297 297 297
297 298 300 300 300 302 304 304 304 305 305 306 306 305 305 305 305 304 304 304 305 305 305 305 306 305 304 305 305 305 306 306 306 306 306 306 306 306 306 306 306 306 305 305 304 303 303 303 302 303 304 303 304 305 306 306 305 304 302 303 304 303 303 302 302 302 302 302 301 301 301 301 301 301 300 300 300 299 299 298 298 298 298 298 298 298 298
296 297 299 299 300 302 304 303 303 304 304 305 306 305 304 305 305 304 304 304 304 305 305 305 304 304 304 305 305 304 305 305 305 305 305 305 305 305 305 305 305 305 304 304 304 303 303 303 303 303 304 303 304 306 306 305 305 303 302 303 304 303 302 303 302 302 302 302 302 302 301 301 301 301 300 300 300 299 299 299 299 299 299 298 298 298 298
295 296 299 300 300 302 303 303 303 304 304 305 306 304 304 305 305 304 304 304 304 304 304 304 304 304 304 305 305 304 304 305 305 304 305 305 304 305 304 304 304 304 304 304 303 303 303 303 302 303 303 303 304 306 306 304 303 302 302 303 304 303 303 303 303 302 302 302 302 301 301 301 301 300 300 300 300 300 300 300 299 300 299 299 299 299 298
295 296 298 300 301 301 302 303 304 305 305 305 305 304 304 306 305 304 304 304 304 304 303 304 306 306 305 305 306 305 304 304 304 304 304 304 304 304 304 304 304 303 304 303 303 303 303 302 303 304 303 302 303 304 304 302 301 301 303 303 303 303 303 303 303 302 302 302 301 301 301 301 301 301 301 301 301 301 300 300 300 300 299 299 299 299 299
295 296 298 300 300 300 302 304 306 305 305 305 304 304 305 306 305 305 304 303 304 304 302 303 306 308 307 306 306 305 304 304 304 304 304 304 304 304 303 303 303 303 303 303 303 302 301 302 303 302 301 301 303 304 303 301 301 301 302 302 302 303 303 302 302 302 302 302 301 301 301 302 302 301 301 301 301 300 300 299 299 299 299 299 299 299 299
296 296 298 299 300 301 303 305 306 304 303 304 303 303 305 305 305 305 304 304 304 304 302 302 305 308 308 307 305 304 304 304 304 304 303 304 304 303 303 304 304 303 302 302 302 302 302 302 303 303 302 302 303 303 302 301 301 301 302 302 302 302 302 301 301 301 301 301 300 301 301 302 301 301 301 301 301 300 300 300 300 300 300 300 299 299 299
296 297 298 299 301 303 305 306 305 303 301 302 303 304 304 304 305 306 305 304 304 304 303 304 306 306 306 305 303 303 305 305 304 303 303 303 303 303 304 305 304 304 304 304 303 303 302 302 304 306 304 302 302 302 302 303 302 302 302 302 302 302 301 301 300 300 300 300 300 300 300 300 300 300 301 301 300 300 300 300 300 300 299 299 299 299 299
298 299 300 301 303 304 305 305 304 302 301 301 302 304 304 304 305 305 304 304 305 304 304 305 306 304 303 304 305 305 304 304 303 304 303 303 303 303 303 303 303 304 306 305 302 302 302 303 306 306 302 300 300 302 303 303 303 302 302 302 302 302 302 301 301 300 300 299 299 299 299 300 300 300 300 300 300 300 300 300 300 300 300 300 300 300 300
302 303 303 304 304 304 304 303 303 302 301 301 303 304 303 304 304 304 303 303 304 303 304 305 304 303 304 306 306 304 303 303 304 305 305 304 304 304 304 304 304 305 306 305 302 302 304 304 306 306 302 299 300 302 302 302 303 303 303 302 302 302 302 301 300 300 300 300 300 300 300 300 300 300 300 300 300 300 300 300 300 300 300 300 300 300 300
305 304 304 304 304 303 303 302 301 301 302 303 303 303 303 303 304 303 303 304 304 304 304 304 304 303 304 305 305 305 304 304 306 307 306 304 304 304 303 303 303 305 305 303 301 303 305 305 305 304 302 300 300 301 302 303 303 302 302 303 303 302 302 301 301 301 301 300 300 300 300 300 300 301 300 300 300 300 300 300 300 299 300 299 299 300 300
304 304 303 302 302 303 302 302 302 302 303 303 303 303 303 302 302 302 303 305 306 304 304 304 304 304 304 305 305 305 305 304 304 304 303 303 303 303 303 302 301 304 304 302 301 304 307 305 303 303 302 300 300 301 302 302 302 303 302 302 302 302 302 301 301 301 301 301 301 301 301 300 301 301 300 300 300 300 300 300 299 299 299 299 299 299 299
303 303 302 301 301 302 302 302 302 302 302 302 303 303 302 302 301 301 303 304 305 304 304 304 304 304 304 305 304 304 305 304 303 303 304 303 302 303 304 303 303 304 304 302 302 306 307 304 303 303 303 300 299 300 301 301 302 302 302 302 302 302 302 302 301 301 302 302 301 301 301 301 300 300 300 300 300 300 300 300 299 299 299 299 299 299 299
302 302 302 302 302 302 302 302 301 300 302 304 304 303 302 302 302 302 303 303 303 304 304 304 304 304 304 304 303 303 304 303 302 303 305 303 301 303 305 305 304 303 302 302 303 306 306 304 304 304 302 300 299 300 301 301 301 301 301 301 302 301 301 301 301 301 301 301 301 301 301 300 300 300 300 299 299 300 299 299 299 299 299 299 299 299 299
302 302 303 302 301 301 301 301 300 300 301 303 303 303 303 303 303 305 306 304 303 304 304 303 304 305 304 303 303 303 303 302 302 303 302 300 301 304 306 304 302 301 300 302 305 305 305 305 304 302 300 300 300 300 300 300 300 301 301 301 301 301 301 300 300 300 300 301 300 300 300 300 299 299 299 299 299 299 299 299 299 299 299 299 299 299 299
302 302 302 301 300 300 301 301 300 300 301 303 304 307 308 307 307 310 310 305 303 304 304 303 304 304 303 302 303 303 302 303 304 302 300 300 303 304 304 303 302 302 302 303 303 303 304 305 302 299 299 300 300 300 300 300 300 300 300 300 300 300 300 300 300 300 300 300 299 299 299 299 299 299 299 299 299 299 299 299 299 299 299 299 299 299 299
303 301 301 301 301 300 300 300 301 302 302 302 303 305 307 306 306 307 306 304 303 305 305 303 304 304 302 302 303 302 302 303 303 301 301 304 305 302 300 300 302 303 304 303 302 305 308 306 300 298 300 300 300 300 300 300 300 300 300 300 300 300 300 300 300 299 299 299 299 299 299 299 299 299 299 299 299 299 299 299 299 299 299 299 299 299 299
302 300 300 301 302 301 300 300 302 302 301 300 300 301 302 302 302 302 303 304 304 305 304 303 304 304 302 302 303 302 301 303 303 301 301 304 304 301 300 302 303 304 303 301 303 309 312 306 299 299 301 301 300 300 300 300 300 300 300 299 300 300 299 299 299 299 299 299 299 299 299 299 299 299 299 299 299 299 299 299 299 299 299 298 298 299 299
301 300 300 301 301 301 301 301 301 300 300 300 301 300 301 301 302 302 303 303 304 304 304 303 303 304 303 302 303 302 300 301 302 301 301 302 302 301 302 304 304 303 304 306 311 315 312 304 299 300 301 300 300 301 300 300 300 300 300 300 300 300 299 299 299 299 299 299 299 299 299 299 299 299 299 299 299 299 299 299 299 299 299 298 298 298 299
301 301 301 300 299 299 300 300 299 299 300 300 300 300 300 301 301 302 303 303 304 305 304 303 304 304 302 302 303 304 302 302 303 303 302 303 303 303 304 304 302 302 306 309 310 310 306 302 301 301 301 300 300 301 300 300 300 300 300 300 300 300 300 300 299 299 299 299 299 299 299 299 299 299 298 298 299 299 299 299 299 299 298 298 299 299 299
301 301 301 300 300 301 300 299 300 301 302 301 300 300 301 301 301 302 303 304 304 304 303 302 303 303 302 302 305 305 303 302 302 302 303 305 304 302 301 303 305 308 309 307 304 303 302 302 302 301 300 300 301 300 300 300 300 300 300 300 300 300 300 300 299 299 299 299 299 299 299 298 298 298 298 298 298 298 299 299 299 299 299 299 299 299 299
301 300 300 300 300 301 300 299 301 302 302 301 301 302 302 302 302 303 303 303 304 304 303 302 302 303 304 305 305 303 300 300 301 302 304 305 304 302 304 308 310 309 306 303 301 302 303 303 302 301 301 301 300 300 300 301 300 300 300 300 300 300 300 299 299 299 299 299 299 299 299 298 298 298 298 298 298 298 298 299 299 299 299 299 299 299 299
299 299 300 300 300 300 300 300 300 301 300 301 302 303 303 303 303 304 303 303 304 303 302 301 302 305 306 305 302 301 301 302 302 302 303 303 301 302 307 312 309 304 302 301 302 303 303 302 302 302 301 300 300 301 300 300 300 300 300 300 300 300 300 299 299 299 299 299 299 299 298 298 298 298 298 298 298 298 298 298 299 299 299 298 298 298 298
Wind_Speed
7 5 6 9 10 8 6 5 6 5 4 3 1 1 2 1 1 6 14 20 17 9 2 1 0 1 3 5 7 7 6 5 6 9 9 3 1 3 3 1 2 3 3 4 4 4 4 4 3 4 3 2 2 6 5 2 2 5 3 1 0 2 4 4 2 2 2 4 5 3 7 8 7 5 3 2 2 2 5 5 4 4 2 1 4 2 2
7 6 8 9 7 6 5 5 5 4 4 4 2 2 2 1 3 7 18 20 8 1 2 2 1 3 3 4 6 7 6 6 7 7 5 3 1 2 2 3 3 3 3 5 4 3 4 4 3 3 3 1 5 9 9 6 3 3 2 3 2 1 1 4 3 1 3 4 4 4 6 5 4 3 4 3 3 3 3 2 3 3 2 3 5 2 2
7 8 9 8 5 5 5 4 5 4 2 2 1 1 2 2 4 7 17 18 6 3 2 2 1 2 2 3 4 6 5 7 9 8 4 4 2 3 2 2 2 4 4 6 6 5 5 3 1 2 3 1 4 10 13 10 5 4 4 6 6 3 2 3 5 5 3 2 2 1 1 3 3 3 6 6 4 3 3 3 4 2 1 3 4 4 4
8 9 9 6 4 5 4 4 5 5 1 3 4 2 2 1 2 4 10 13 9 7 6 1 1 1 1 2 4 4 4 5 6 5 2 7 6 4 4 3 3 6 6 7 8 8 7 5 3 2 3 1 3 9 13 11 8 9 11 8 6 5 3 3 5 5 5 5 3 3 2 4 3 4 8 7 4 3 3 4 2 3 4 3 1 6 9
9 10 8 5 4 5 5 5 6 5 0 5 5 3 2 1 0 3 4 6 7 7 8 4 2 0 1 0 4 5 4 3 3 3 3 6 6 5 5 6 4 4 5 6 5 6 7 8 6 4 4 2 2 8 12 11 9 8 9 7 4 5 4 4 7 8 4 4 5 5 6 8 5 4 7 7 6 6 6 5 2 3 5 2 2 8 9
9 9 6 5 5 6 6 7 7 5 2 8 6 2 2 1 2 2 5 3 3 3 5 5 4 2 1 1 3 3 2 1 2 2 3 6 7 5 5 9 6 3 4 5 3 4 6 7 4 3 4 2 2 7 8 8 9 7 6 6 5 6 3 3 7 11 9 7 8 10 11 10 9 8 8 8 9 10 9 5 3 3 4 4 8 10 7
9 7 4 4 6 7 7 8 8 3 6 9 5 3 3 2 3 0 3 1 2 4 3 3 4 4 4 3 3 3 1 3 2 2 3 5 8 6 4 7 7 6 5 6 4 3 4 3 2 1 2 2 2 3 3 5 9 7 5 5 4 5 3 2 7 12 10 8 7 9 12 11 10 11 10 9 10 12 11 9 8 9 8 7 12 13 8
9 5 2 3 6 7 8 8 4 4 9 7 5 5 3 2 3 2 1 2 2 3 2 3 3 3 4 4 4 1 2 4 3 4 4 4 3 6 7 5 8 9 9 9 5 1 5 6 3 3 2 2 2 2 2 1 5 6 3 3 4 4 4 2 4 8 7 6 7 9 12 13 12 11 9 8 9 9 9 8 8 11 10 9 12 12 7
8 3 2 4 6 7 8 5 3 7 8 5 5 5 2 3 2 2 2 2 1 2 2 4 3 1 2 3 3 1 2 3 5 6 8 7 5 4 7 8 8 9 11 11 6 3 6 9 6 6 6 4 2 2 3 4 2 5 3 2 4 4 4 2 2 5 3 2 6 9 11 13 12 10 9 8 7 5 5 5 5 6 8 10 9 6 3
5 2 3 4 5 7 6 3 6 7 6 5 5 4 1 3 1 1 1 1 1 1 1 1 2 1 2 3 1 1 1 1 5 6 9 10 10 9 10 9 7 7 9 7 4 4 8 10 10 10 10 7 5 4 5 6 4 2 2 3 3 4 6 3 3 5 3 3 2 2 4 7 6 5 5 4 4 4 5 6 8 6 4 5 5 3 4
3 2 3 5 6 7 7 4 7 7 5 3 4 3 2 5 3 3 1 0 1 1 2 1 1 1 2 2 3 4 5 5 5 6 3 6 7 11 14 12 7 5 4 4 4 5 8 12 15 18 20 20 17 15 13 11 8 3 4 3 3 5 6 4 2 4 4 4 2 3 2 2 1 2 2 1 3 6 8 7 8 8 6 5 6 6 7
1 4 4 4 6 7 7 4 6 6 4 4 4 3 3 7 5 5 3 1 1 3 2 1 2 2 3 6 6 6 8 9 8 10 8 3 5 11 14 12 7 3 2 3 4 5 6 9 13 16 19 20 20 20 17 12 12 10 6 7 5 5 5 3 2 3 4 2 2 3 1 0 1 3 4 6 7 9 12 10 9 9 9 9 10 8 8
3 4 3 4 6 6 7 6 5 5 4 5 4 2 5 7 6 6 4 2 1 1 1 2 2 6 9 10 8 6 9 12 13 15 13 7 5 8 10 9 7 5 4 3 4 6 5 4 5 7 8 9 10 13 13 10 10 12 10 7 7 6 4 3 3 2 3 2 2 2 3 2 4 4 4 6 5 5 8 8 8 7 6 8 9 9 11
4 4 3 4 6 7 7 8 7 5 4 4 3 3 5 7 6 6 4 2 2 2 1 3 4 7 10 8 6 6 7 9 12 13 9 6 6 7 9 10 9 8 5 3 4 6 4 3 4 4 4 6 5 5 6 6 7 9 10 6 5 7 5 4 3 2 2 3 3 3 4 3 4 3 2 2 1 1 3 4 4 5 5 6 10 9 11
5 4 4 5 7 8 9 10 9 6 4 2 3 3 5 7 7 5 4 1 1 3 5 5 4 2 5 6 5 6 5 5 6 6 5 5 7 8 8 8 7 5 4 3 4 4 3 3 3 2 2 2 2 1 2 4 4 6 7 6 6 7 5 5 4 1 1 4 4 3 2 2 2 2 1 1 2 2 4 4 3 3 6 6 12 10 10
5 4 5 6 8 9 10 11 10 6 3 4 4 5 6 7 5 3 3 1 1 2 7 7 3 2 6 7 8 8 4 2 2 3 5 6 6 7 8 7 4 3 4 4 4 4 4 3 3 3 2 2 2 1 1 2 4 5 6 8 11 10 5 5 6 3 2 4 3 2 2 1 1 2 1 4 2 4 4 3 2 1 5 6 12 11 12
5 5 5 7 8 9 10 11 9 6 5 5 5 6 5 4 2 2 3 2 2 5 9 6 5 7 7 5 6 6 4 3 3 3 2 2 2 4 7 6 6 6 5 4 3 4 4 3 3 3 1 2 3 2 1 2 2 5 7 8 10 8 5 4 5 4 3 3 2 2 1 1 0 1 2 4 1 4 2 1 1 1 5 7 11 11 12
5 6 6 7 8 8 9 10 8 5 4 3 7 5 1 1 3 3 4 3 2 6 12 11 10 10 7 3 4 4 3 3 3 3 2 1 2 3 4 3 4 5 5 3 2 3 4 2 2 4 1 1 2 3 1 2 2 2 3 3 4 4 4 3 4 4 4 4 2 1 1 1 1 1 4 3 2 2 1 0 3 4 6 6 8 8 8
5 6 6 7 8 7 8 10 7 3 2 5 7 4 3 4 5 5 8 8 6 8 12 13 13 12 9 7 8 8 5 4 3 4 3 2 1 3 4 4 3 2 3 4 3 2 3 1 0 3 3 2 1 2 2 2 0 1 2 2 2 2 3 2 2 2 3 3 2 1 1 1 0 1 3 3 2 1 1 4 7 8 9 7 7 8 9
6 6 6 7 7 7 8 8 5 1 5 7 6 6 5 5 7 9 9 11 12 13 14 14 13 12 10 9 9 8 5 5 4 4 3 2 2 4 4 2 2 2 3 4 3 1 2 2 0 1 2 1 1 3 2 1 0 0 1 1 1 2 2 2 2 2 2 3 3 2 2 1 1 1 1 3 1 4 9 12 12 11 11 12 12 13 14
5 5 6 6 7 7 7 6 4 4 7 7 7 8 8 9 11 12 11 10 9 10 11 12 13 12 12 12 10 8 6 6 5 5 7 6 3 3 3 3 2 1 1 2 2 1 2 2 1 1 3 1 1 2 3 3 2 1 1 3 1 1 1 2 2 1 1 2 2 1 1 2 1 4 3 4 8 15 18 18 16 14 15 16 16 17 18
5 5 5 6 6 7 6 6 6 5 6 7 9 11 12 12 13 16 15 13 10 9 10 13 13 13 12 11 10 9 8 7 6 6 9 8 5 4 4 4 3 2 2 3 4 2 1 2 2 2 3 2 2 2 3 3 0 2 2 3 1 1 4 5 3 2 3 3 3 3 7 9 10 13 15 16 18 20 20 21 21 18 17 18 19 20 19
5 4 5 6 6 6 7 7 7 6 6 9 11 12 14 15 16 17 16 14 13 12 11 12 12 13 13 11 10 9 8 7 6 5 6 7 6 6 5 5 4 2 2 3 4 4 3 3 3 3 2 2 3 3 3 3 2 0 2 4 4 4 5 5 5 6 7 9 9 9 13 17 19 20 21 21 21 21 21 22 22 20 18 19 20 20 19
4 4 5 6 6 7 8 8 7 7 8 9 11 13 15 16 15 14 13 11 10 9 9 11 12 11 11 11 10 9 7 7 7 5 4 6 6 5 5 5 4 4 5 6 8 9 8 4 2 3 3 1 2 3 3 3 2 1 3 5 2 2 3 4 4 4 4 5 7 9 12 16 19 21 21 21 22 21 21 21 20 20 19 19 19 18 17
4 4 5 6 7 8 9 9 8 8 9 9 10 12 13 13 12 11 9 8 7 6 4 7 11 10 8 10 11 10 9 9 9 9 8 8 11 12 11 10 9 9 11 12 13 13 10 4 2 4 3 1 2 2 1 2 3 3 3 2 0 2 6 6 4 3 4 5 8 12 14 16 18 20 21 21 21 20 19 19 19 19 19 18 17 16 15
4 4 6 6 7 8 9 9 8 9 9 9 9 9 11 12 10 8 9 10 11 9 4 4 9 12 11 12 13 12 10 9 9 11 13 14 15 14 12 13 16 17 18 19 18 17 13 6 3 3 2 2 4 3 1 3 4 3 2 2 3 6 6 4 5 7 7 8 10 13 14 12 12 17 20 20 20 20 19 18 18 18 18 17 16 14 13
4 4 6 6 7 8 9 10 9 9 8 8 8 8 9 10 9 9 11 10 8 6 3 2 8 14 16 16 14 11 10 9 8 10 12 12 11 9 10 14 19 22 23 22 20 18 14 7 4 4 4 6 8 6 4 5 6 4 3 3 5 7 5 5 8 7 3 5 10 12 9 7 10 16 19 18 18 20 19 18 18 18 18 18 17 16 14
4 5 6 6 7 8 9 10 10 10 9 8 8 7 7 7 8 9 8 5 4 6 7 5 7 12 15 15 14 11 9 8 9 10 11 12 11 11 13 17 20 22 23 21 15 11 8 5 5 5 5 8 8 5 4 5 6 4 2 2 4 8 7 5 5 5 6 12 17 14 12 14 16 20 21 19 19 21 21 20 20 19 19 20 19 19 18
3 5 6 5 6 7 7 9 10 10 9 9 8 7 6 7 8 8 6 6 10 14 13 11 10 9 9 11 14 14 11 9 10 13 15 17 18 17 18 20 22 23 24 23 16 10 7 7 8 7 5 5 4 3 3 4 3 2 2 5 11 12 9 8 12 14 15 19 20 19 21 23 23 23 23 22 21 23 24 23 23 23 23 22 21 20 19
4 5 6 6 6 7 6 7 9 9 9 9 9 8 7 7 6 6 7 11 14 14 12 9 7 6 8 12 17 19 17 15 16 19 21 22 23 23 23 24 25 25 24 22 17 11 8 8 8 9 8 7 5 2 2 3 2 2 4 12 16 14 12 16 22 23 21 22 23 25 27 28 26 25 24 23 23 24 25 24 24 24 23 21 20 19 18
5 6 6 7 7 7 6 6 6 7 8 8 6 5 5 4 5 8 11 12 13 12 11 9 6 5 8 12 16 18 19 20 21 23 24 24 24 24 24 24 24 23 23 21 17 10 6 6 6 7 9 9 7 3 2 4 3 2 4 13 19 19 21 23 25 27 27 27 28 28 27 26 25 22 21 22 22 23 23 23 22 21 20 20 18 17 15
6 7 8 8 9 8 6 5 4 5 6 6 4 5 6 6 8 12 13 11 11 10 10 8 5 2 2 5 10 14 17 19 20 21 22 21 21 22 23 23 23 22 20 18 13 8 6 7 10 10 10 10 8 4 3 4 3 3 10 19 22 23 25 25 25 26 27 28 29 26 22 22 23 22 22 23 23 21 21 21 20 18 17 16 14 13 12
7 8 9 10 10 9 7 5 4 5 6 6 6 8 9 8 10 13 12 10 9 8 6 4 2 1 1 3 7 11 13 14 16 17 16 15 17 19 19 18 17 16 14 11 7 5 5 9 12 12 10 10 8 4 3 4 5 11 19 24 24 24 25 25 25 25 24 25 25 24 22 24 24 23 22 22 21 19 18 17 16 15 14 12 11 11 10
7 8 10 11 11 10 8 6 5 5 7 8 8 9 9 9 11 13 11 9 8 7 5 4 3 1 1 2 4 6 8 10 12 11 9 9 13 15 13 11 11 11 10 10 9 7 6 8 10 8 6 7 8 5 2 2 8 18 24 25 24 25 25 24 24 24 23 22 21 22 23 24 23 21 20 19 18 17 16 14 14 13 12 10 10 9 8
7 9 11 13 12 11 8 6 6 6 8 10 10 9 9 9 10 11 10 8 6 4 3 3 3 3 2 2 2 3 6 8 8 8 7 8 11 12 10 8 8 7 7 8 8 6 5 6 7 4 2 3 4 3 2 6 13 21 26 26 26 26 25 24 24 24 22 21 20 21 21 21 19 19 19 18 17 17 16 15 14 12 11 10 9 8 8
7 10 12 14 13 11 8 6 6 6 8 10 10 9 9 10 10 9 9 8 4 3 3 3 3 3 3 2 1 3 6 7 7 8 8 7 8 9 10 8 6 5 5 6 6 4 4 4 4 2 2 3 3 4 10 17 21 24 27 28 27 26 24 23 23 23 21 21 21 21 20 20 19 19 18 17 16 17 16 15 15 13 11 9 8 8 8
9 11 13 15 14 11 7 6 6 6 7 10 10 9 8 9 9 8 6 5 4 4 5 5 3 2 3 3 2 3 4 3 3 5 6 4 5 7 8 6 3 3 5 5 4 4 5 6 5 3 2 2 5 14 21 25 26 26 27 27 25 22 22 23 23 23 22 22 22 21 20 19 18 18 17 16 16 16 16 15 14 13 11 9 8 7 7
11 12 14 14 12 8 5 5 6 7 8 10 10 7 5 5 6 4 3 3 4 5 6 6 4 3 4 4 3 3 3 2 2 4 4 3 4 4 5 4 3 2 3 2 2 4 6 5 4 3 2 2 8 19 24 25 24 24 24 24 23 22 22 23 23 22 22 22 22 22 21 21 20 19 17 16 16 16 15 13 11 10 8 7 7 7 7
11 11 11 10 8 6 5 5 6 7 7 9 8 4 2 3 3 2 1 3 3 4 5 4 4 4 5 4 4 3 4 4 3 3 2 2 2 1 1 2 3 3 3 1 1 3 4 3 2 3 2 2 6 17 23 23 23 22 21 21 22 22 23 23 22 21 20 20 21 21 21 20 20 19 17 16 15 14 13 11 9 7 6 5 5 6 7
8 8 8 8 7 7 7 8 8 7 7 7 5 2 2 3 2 1 1 2 2 1 3 4 4 5 8 9 6 5 5 5 4 4 3 2 2 3 3 2 2 3 3 1 1 3 3 1 2 2 0 3 7 16 22 23 22 22 21 21 22 22 22 22 20 18 17 17 19 20 18 17 17 17 15 14 13 12 11 10 8 7 5 4 3 5 7
6 7 6 6 8 10 10 8 7 6 5 4 3 2 1 1 0 0 2 2 0 1 3 5 5 4 7 10 9 6 5 5 7 7 5 2 3 4 3 1 1 3 2 2 2 3 4 2 2 0 4 8 12 18 22 23 22 21 21 21 22 22 22 22 21 18 16 16 18 18 17 15 15 16 14 12 12 12 12 11 9 6 5 4 3 3 4
6 6 7 8 10 11 9 6 4 3 3 3 2 1 1 0 0 0 1 1 2 2 3 4 6 7 8 9 8 7 6 6 5 5 4 1 2 4 2 1 1 2 1 3 4 4 3 2 1 2 7 13 18 21 24 24 22 20 20 20 21 21 21 21 21 18 16 16 16 16 16 16 16 15 13 12 13 13 12 10 8 6 6 6 5 4 4
7 8 8 9 9 8 5 2 2 1 1 2 2 1 1 1 0 0 1 1 2 3 4 6 9 11 10 8 7 7 7 6 4 4 3 2 2 3 3 2 2 2 3 4 4 3 2 3 3 6 12 18 21 23 25 24 22 20 19 19 19 20 20 19 18 17 16 16 16 17 17 17 16 14 13 13 13 13 12 9 7 5 6 7 7 6 4
8 8 7 5 4 4 3 1 1 1 1 0 1 2 2 1 1 1 1 2 3 4 7 11 14 12 7 4 5 5 5 5 3 3 3 2 2 2 2 0 1 2 3 3 2 1 2 3 4 11 19 23 23 25 26 24 22 22 22 21 22 22 21 20 20 20 19 19 19 19 18 16 14 13 13 12 12 12 11 9 8 6 4 4 6 6 5
7 5 4 2 1 1 1 1 1 0 1 2 2 3 3 3 3 3 3 5 7 9 12 16 17 13 8 5 5 4 2 3 3 2 1 2 2 2 1 2 1 2 3 2 1 1 2 2 4 16 25 27 26 28 28 25 24 24 24 24 24 23 21 21 21 21 21 20 18 17 16 15 14 14 13 11 10 9 8 8 8 6 2 2 5 7 6
5 3 3 2 1 1 1 1 0 0 2 3 4 5 6 7 6 5 5 7 11 15 16 17 17 15 9 5 4 3 3 4 3 1 1 3 2 0 1 3 2 2 2 1 1 3 4 4 10 23 31 31 29 30 28 25 25 25 25 25 24 22 20 20 19 18 18 18 16 15 15 15 14 13 12 11 10 8 7 8 7 5 2 1 3 7 8
4 3 3 2 0 1 0 1 2 3 2 3 5 6 7 7 6 5 6 8 13 17 18 16 16 13 8 5 4 3 2 3 2 1 1 3 2 1 1 2 1 1 2 3 4 4 4 7 18 31 35 33 31 30 28 26 25 24 23 23 23 21 20 18 16 16 17 17 15 15 15 14 12 12 12 11 10 9 9 8 6 4 3 2 3 5 7
5 3 2 1 1 1 2 2 3 4 5 5 6 5 5 5 6 4 4 7 14 19 19 16 13 9 4 4 4 2 2 3 3 0 1 2 2 1 2 1 1 2 2 4 5 4 5 13 27 36 37 34 33 31 30 28 26 24 23 22 22 21 20 18 17 17 17 17 15 13 12 12 12 12 11 9 9 9 9 7 5 5 4 3 3 4 5
4 4 2 1 1 3 3 3 3 4 6 8 8 8 7 8 9 6 4 9 16 20 19 15 12 6 1 1 3 2 2 2 2 1 1 2 2 1 1 1 2 3 3 3 4 5 10 20 32 38 39 37 35 32 30 29 27 24 22 21 21 20 19 18 17 17 16 15 13 12 11 11 12 11 10 8 8 8 8 8 7 6 4 3 3 4 5
3 3 3 2 1 2 2 2 1 3 6 5 6 10 11 10 9 7 7 13 21 21 15 11 8 4 1 1 3 2 1 1 2 2 1 1 1 2 2 2 3 5 4 4 5 8 13 23 33 39 41 39 36 33 31 29 27 24 22 21 21 20 18 18 18 17 15 14 13 11 11 10 10 9 9 8 8 8 9 9 8 6 5 3 4 5 6
2 2 3 4 5 4 3 3 3 6 7 6 4 9 12 13 11 10 12 19 23 18 10 5 4 3 3 2 1 1 1 2 2 2 1 2 2 3 3 3 5 6 6 7 7 9 15 26 36 42 43 41 37 34 31 29 26 24 23 22 21 20 19 18 18 18 16 15 13 12 10 9 8 9 9 8 7 8 9 8 8 8 7 5 5 5 5
3 2 3 5 7 7 6 6 7 8 8 5 4 9 13 14 14 14 19 23 21 13 7 5 4 4 2 2 2 2 2 2 2 1 2 2 2 3 4 6 7 8 9 10 10 12 19 30 38 41 43 41 38 34 32 30 27 25 24 24 23 20 18 18 18 18 16 14 13 12 10 10 10 10 10 8 7 7 8 9 10 10 7 6 6 6 6
Wind_Direction
327 312 314 318 318 321 325 342 349 344 5 12 303 20 7 314 116 134 150 151 148 138 82 8 115 258 261 283 287 271 271 283 290 303 311 310 1 24 10 3 42 36 58 81 88 94 71 34 67 117 91 51 321 329 357 26 77 83 120 210 108 96 87 85 55 351 333 281 288 7 53 70 71 45 37 59 54 111 135 169 169 114 122 111 77 105 147
339 336 323 317 325 344 343 346 346 344 21 23 355 26 39 78 75 125 154 156 149 95 134 143 199 254 269 285 281 272 259 256 271 287 304 319 5 74 12 351 31 21 34 68 65 86 88 45 31 102 113 54 351 13 45 81 70 54 155 174 134 109 76 93 108 57 355 325 320 6 25 39 60 25 347 355 28 79 116 123 85 95 159 134 116 131 138
344 331 321 320 333 344 333 339 344 335 15 72 87 53 62 87 73 129 165 175 200 270 206 148 177 234 324 322 285 281 267 244 243 249 292 355 46 97 26 354 57 31 32 59 44 43 85 101 38 67 82 44 4 29 51 73 77 66 103 122 114 104 84 105 127 144 160 188 221 206 56 34 39 11 355 1 23 62 121 120 79 99 158 86 106 142 130
341 326 321 320 324 336 335 338 346 339 351 131 140 124 76 65 81 124 172 194 218 253 268 272 153 193 20 327 275 251 241 253 249 242 337 17 33 58 32 25 61 39 43 63 40 29 58 84 94 74 59 44 345 21 44 58 72 81 79 81 97 97 61 58 104 132 170 184 197 204 132 81 45 356 358 3 359 17 90 105 98 154 142 43 44 147 132
341 330 329 332 336 351 351 350 352 344 350 137 140 139 94 70 95 117 152 203 221 253 273 262 182 178 101 187 263 247 242 275 335 26 36 22 29 50 28 17 42 49 65 83 49 28 52 64 74 65 44 68 355 18 35 34 35 67 66 44 74 100 53 20 62 72 76 97 85 68 80 85 80 50 18 13 22 43 71 79 62 138 127 73 152 136 121
341 335 339 349 352 355 1 7 358 340 153 136 127 111 92 65 307 137 138 180 206 226 259 238 205 239 272 269 275 280 310 31 26 8 33 23 23 53 25 3 22 73 97 111 86 44 54 46 50 64 35 48 18 14 22 17 22 55 58 31 76 107 62 10 76 71 53 56 72 78 85 85 73 64 47 29 41 58 71 69 39 84 121 149 140 120 101
339 331 335 358 359 358 5 4 351 351 136 130 112 77 68 5 316 119 135 182 192 186 221 212 195 217 220 240 269 259 26 56 27 343 56 34 11 54 71 1 17 49 68 98 93 75 106 73 34 113 55 50 76 41 17 5 19 46 64 42 73 101 68 63 95 84 57 42 61 81 88 85 63 53 50 49 58 66 72 74 72 72 73 95 109 103 91
339 329 346 20 8 0 1 1 1 126 131 121 103 92 72 357 339 3 342 292 215 204 216 159 165 213 210 227 269 254 67 57 48 17 68 106 10 45 87 64 50 60 63 76 80 138 145 127 127 161 126 79 104 117 176 241 16 28 51 42 38 79 124 171 97 83 60 44 67 81 84 82 67 46 36 39 50 55 57 63 74 79 79 85 94 96 91
340 337 44 30 13 3 3 20 104 134 128 122 116 107 54 340 346 347 315 306 263 205 195 149 150 245 217 219 267 338 39 76 91 41 34 89 108 96 108 91 63 62 61 67 87 127 119 115 120 127 120 129 169 172 167 163 82 27 35 42 30 72 127 176 70 84 98 94 97 97 92 84 68 46 35 33 39 48 45 40 51 84 113 113 100 94 105
343 15 45 27 23 17 19 78 141 138 128 135 140 137 340 344 356 280 203 276 288 186 163 88 107 215 222 203 274 24 279 22 97 71 30 53 90 114 116 96 65 61 60 63 96 111 96 96 94 92 93 96 110 116 108 105 103 106 101 59 43 103 130 143 102 99 137 179 152 101 91 85 63 36 40 47 62 79 64 40 34 43 103 125 111 112 129
348 66 49 30 31 29 35 99 150 146 142 159 150 137 0 10 12 329 4 127 287 50 57 34 116 212 243 137 81 78 78 43 61 104 69 27 73 100 100 93 83 70 63 66 79 82 85 85 82 83 81 75 71 74 74 61 43 59 131 96 56 104 121 129 113 107 147 204 291 352 41 98 67 344 356 67 102 91 79 61 46 48 63 85 93 106 116
41 82 58 35 35 34 43 94 151 153 152 175 160 142 346 2 5 339 1 88 315 17 45 254 213 171 108 91 80 70 79 70 72 104 113 82 79 91 87 85 90 93 84 73 67 78 91 83 76 74 68 64 64 61 57 44 20 23 80 118 118 107 103 96 76 95 136 173 14 51 120 178 57 54 71 96 104 96 88 74 57 63 79 92 99 106 112
86 89 61 37 39 40 48 82 135 151 153 173 174 193 305 328 346 346 9 65 288 320 24 333 26 105 103 88 77 76 86 89 87 93 101 103 97 88 81 85 100 107 105 100 88 93 92 64 59 59 36 32 49 46 39 35 24 24 45 90 121 122 111 97 63 65 116 96 36 107 141 118 104 100 103 115 112 97 87 66 43 47 74 107 114 115 120
106 93 63 45 41 43 52 71 103 127 130 155 187 240 286 301 322 340 358 33 281 285 47 34 33 79 92 85 79 77 69 69 75 79 83 92 90 80 83 98 108 104 108 120 89 82 81 51 58 61 9 4 28 26 11 21 34 34 29 34 95 118 120 108 63 35 111 102 73 102 120 137 146 150 163 152 209 230 124 88 55 29 39 113 130 126 128
113 89 62 49 42 47 58 73 95 113 109 143 211 262 285 288 296 310 321 326 293 353 29 22 325 356 69 69 74 82 58 36 55 59 43 60 75 75 80 91 97 108 127 118 75 63 75 90 92 85 35 37 74 18 343 353 9 33 37 35 64 90 119 139 116 50 88 105 102 116 144 190 183 163 160 6 336 195 134 104 114 20 23 117 143 138 135
110 88 63 50 45 52 64 79 100 124 171 214 244 294 297 286 291 307 322 338 136 11 5 352 323 80 81 68 69 84 86 39 41 40 18 22 44 74 84 78 72 108 122 90 67 66 73 89 123 134 142 178 180 168 16 3 338 344 10 40 56 60 67 101 100 88 112 115 119 151 185 226 145 153 219 350 357 170 136 82 133 41 25 108 144 147 151
103 87 66 50 49 58 70 87 109 147 194 226 279 310 298 282 320 350 347 21 83 45 25 30 81 89 79 68 64 69 73 69 79 89 72 350 348 67 81 76 67 74 80 66 46 56 71 87 109 104 132 220 147 122 120 93 38 331 338 16 41 44 31 56 90 107 111 101 102 125 155 268 217 175 300 338 20 168 145 31 185 130 57 99 133 146 161
97 85 70 55 56 64 76 91 116 161 201 278 316 323 324 48 39 39 39 50 56 36 44 64 86 79 70 86 88 75 78 83 82 88 87 319 329 45 59 58 53 45 50 70 75 65 77 91 109 111 140 275 97 111 142 106 76 326 333 18 38 38 28 57 105 107 86 86 101 104 86 251 240 318 326 347 103 155 175 194 166 125 94 101 121 139 164
99 88 70 60 66 74 81 95 120 170 296 339 351 19 57 49 58 72 64 68 78 62 57 68 81 83 86 93 89 86 87 88 95 103 88 11 21 82 71 57 56 23 27 68 87 87 87 73 147 123 111 344 22 102 101 97 100 327 54 64 58 56 35 34 81 99 92 93 96 97 114 218 248 12 10 40 97 202 177 127 131 123 109 102 106 123 146
102 88 71 66 77 86 86 98 120 1 351 9 29 55 74 83 95 96 83 77 80 73 66 68 75 82 85 84 84 85 83 82 97 120 128 138 140 115 89 56 48 31 38 62 71 79 107 112 294 102 105 92 101 103 102 108 123 123 116 107 81 97 91 71 87 110 93 76 81 124 154 247 268 133 32 7 50 155 130 115 116 118 110 102 101 110 126
105 88 75 73 87 97 90 90 82 13 9 31 54 74 94 107 106 100 91 81 73 68 69 74 79 82 79 75 75 78 78 84 108 131 130 126 128 120 136 191 196 91 91 115 101 68 129 142 150 79 103 104 54 101 130 119 56 3 132 129 111 356 102 151 176 187 110 106 139 167 47 347 235 160 126 93 124 139 134 123 117 116 115 112 111 113 122
108 90 80 85 98 101 87 73 56 34 35 57 71 85 98 105 105 101 95 87 83 85 84 82 83 85 82 77 76 76 76 82 101 130 136 125 101 96 127 134 105 103 149 126 108 118 150 127 124 109 99 87 70 96 115 116 83 306 2 65 57 73 108 109 99 83 88 98 108 96 74 75 99 118 118 119 127 135 134 126 122 123 125 125 124 124 127
115 94 89 100 105 97 81 69 60 61 73 77 81 94 104 105 103 102 100 97 95 94 88 82 83 84 80 74 74 77 78 80 87 118 150 137 103 86 102 102 82 91 112 106 129 152 141 126 141 131 105 106 109 94 69 78 121 262 35 73 96 106 103 97 97 105 91 76 82 94 89 88 98 110 117 124 128 129 127 125 126 131 134 133 132 132 133
125 105 103 109 107 94 83 74 72 84 87 83 92 107 113 112 110 109 109 108 102 94 83 72 68 67 64 62 67 73 71 69 73 80 120 146 136 114 100 94 94 102 98 109 132 129 112 108 121 103 99 128 113 103 88 85 112 128 100 101 91 39 66 88 115 132 114 84 96 105 101 101 107 113 118 123 125 126 126 126 128 133 134 134 134 133 133
128 114 120 117 106 95 86 78 85 96 86 79 99 118 121 120 121 120 116 108 94 91 90 63 53 51 55 61 64 69 68 63 68 77 87 107 118 115 104 95 99 104 105 119 131 119 98 86 94 98 97 11 65 100 108 105 136 147 116 109 196 98 100 97 88 83 88 101 111 107 103 110 117 121 125 129 130 131 129 125 127 131 133 132 131 128 129
134 127 133 122 107 101 90 80 91 102 91 82 96 117 125 126 125 123 120 112 93 81 84 70 57 58 68 72 67 67 72 74 80 90 94 96 100 102 100 99 103 106 105 109 111 98 83 75 84 89 76 38 74 101 101 95 114 109 70 102 137 121 111 107 106 103 93 97 111 111 102 103 120 131 135 136 136 136 132 127 128 129 130 131 128 122 121
144 142 142 128 117 110 93 84 97 110 103 94 94 106 122 129 133 134 127 115 91 72 71 79 67 67 73 76 71 64 70 84 100 106 104 103 99 96 102 110 112 109 102 97 91 82 77 74 67 70 86 86 84 88 94 96 99 86 65 84 103 106 116 124 120 119 117 132 141 137 121 119 140 142 140 141 140 137 133 132 132 129 129 131 127 122 118
153 153 151 136 128 123 102 93 106 117 114 105 97 102 124 135 141 144 131 99 95 117 115 95 76 73 73 73 71 67 63 77 102 112 111 112 111 107 114 121 120 111 100 93 84 73 70 78 84 86 93 90 82 75 75 83 81 64 3 347 108 125 148 154 124 117 137 150 154 149 135 138 149 148 143 140 136 130 127 129 130 128 128 127 122 120 119
163 160 163 151 142 139 118 103 112 123 125 118 107 110 133 139 137 139 126 107 121 123 107 85 74 70 64 69 80 85 82 84 100 108 112 116 116 115 118 120 114 107 101 95 89 79 69 77 85 77 68 79 90 75 55 68 64 19 25 106 122 130 142 139 124 120 131 148 153 144 134 137 144 143 138 133 128 124 123 124 126 126 125 123 120 118 119
185 175 175 169 160 156 137 116 121 130 132 128 119 113 118 122 128 136 130 128 133 125 104 90 85 71 64 73 85 93 100 105 108 108 110 112 111 110 114 112 107 105 103 97 91 85 72 68 73 70 66 75 95 95 72 85 71 13 83 116 124 127 127 128 129 130 136 145 145 137 133 135 136 134 132 129 126 125 124 123 124 124 123 123 121 120 120
204 196 191 182 174 171 152 128 131 142 145 143 132 108 93 96 127 142 138 136 139 129 107 95 95 85 74 72 77 88 98 104 104 103 103 104 104 107 111 109 104 103 101 93 86 79 65 58 65 67 65 70 79 89 102 97 77 26 106 123 127 124 120 123 128 131 135 140 138 133 132 135 138 141 142 138 134 131 129 128 127 125 122 122 121 120 121
206 202 196 185 178 175 160 137 142 164 170 167 137 102 100 112 134 144 145 142 140 131 112 94 82 75 57 54 68 84 96 102 102 99 96 96 100 104 104 100 98 98 96 89 75 54 46 68 75 70 67 74 83 84 72 81 102 151 133 127 129 129 127 128 132 133 137 141 138 135 140 148 147 144 143 142 140 138 135 134 133 130 128 128 128 127 127
203 197 188 178 174 170 159 143 149 170 178 172 136 111 112 127 140 146 150 148 137 120 102 86 80 69 26 63 76 85 93 98 97 93 88 89 97 100 95 91 90 89 85 79 72 59 68 82 82 76 73 81 88 86 57 70 121 142 135 132 135 136 134 134 136 137 141 145 141 137 145 152 148 140 139 143 145 143 140 139 140 141 141 142 141 137 133
194 186 177 170 167 165 156 141 141 156 164 158 138 117 113 129 143 148 153 155 138 109 82 71 79 78 28 46 70 82 91 96 94 86 78 84 96 96 88 78 76 74 68 71 82 86 77 77 82 80 69 69 77 81 75 111 132 134 134 137 142 143 140 141 143 144 147 150 145 138 139 145 147 148 150 152 152 150 148 146 146 147 150 155 154 149 147
182 174 168 163 160 160 155 139 127 137 151 153 140 119 111 123 137 149 162 163 139 105 81 73 82 93 82 46 49 88 94 91 88 86 84 85 86 86 79 69 63 63 69 77 80 74 56 63 78 77 30 26 49 66 154 155 141 135 135 139 145 147 147 148 150 153 156 156 150 146 148 153 157 156 155 155 156 156 156 156 156 156 157 159 163 170 178
165 160 158 156 155 155 152 139 123 123 137 147 143 124 111 115 123 139 161 168 149 125 126 105 92 116 129 115 124 130 108 89 81 86 91 88 78 75 79 79 67 56 64 66 59 49 47 56 69 63 0 23 70 145 159 152 145 142 143 145 148 149 149 148 148 151 154 155 154 155 159 161 160 158 161 165 166 168 171 174 178 181 179 171 172 185 193
150 152 150 150 151 148 140 131 125 120 127 142 145 130 114 118 123 129 144 154 146 143 142 130 122 153 149 138 142 135 119 101 81 78 75 73 76 73 73 79 77 56 57 50 34 42 57 60 69 77 14 30 129 152 155 151 149 150 151 152 154 153 151 150 148 145 147 150 154 159 162 162 161 164 171 176 177 180 184 185 186 188 187 183 187 195 197
140 143 145 147 147 141 129 129 133 127 130 142 145 135 118 123 129 123 110 110 125 140 143 140 147 158 140 117 108 125 138 124 84 76 64 64 78 66 54 62 72 56 51 26 5 39 50 45 58 75 11 20 141 154 158 157 157 159 159 159 160 158 156 156 156 154 153 154 157 162 165 165 165 167 169 172 175 176 175 174 174 173 174 178 189 196 195
140 142 144 147 145 136 134 143 143 139 141 146 145 136 106 102 115 112 32 45 90 129 138 140 153 159 145 120 99 120 145 127 83 67 60 69 83 81 53 73 77 67 69 56 354 48 52 10 21 62 15 343 156 164 168 166 165 168 169 166 164 163 162 161 161 160 161 162 165 167 167 164 166 166 161 157 160 162 161 159 154 148 154 178 199 205 203
150 147 141 142 142 140 142 146 144 143 144 142 134 114 79 77 91 179 52 47 50 133 152 150 152 152 151 147 134 127 144 145 123 116 118 97 97 116 109 99 100 83 70 340 301 78 87 61 38 73 211 238 181 173 174 173 173 176 179 176 172 169 168 167 165 164 166 169 173 176 173 169 170 170 162 155 158 161 159 155 148 142 150 173 198 217 217
154 146 140 143 145 144 143 142 139 139 138 124 99 73 81 79 9 25 87 81 2 236 157 145 143 144 152 153 144 130 136 143 132 124 117 83 78 104 107 111 119 87 65 235 185 101 84 79 57 25 213 190 169 166 172 175 177 180 183 182 178 175 174 175 174 174 175 176 181 187 186 180 175 172 167 164 167 166 162 157 152 153 164 167 158 169 189
149 147 148 147 143 141 141 136 121 115 116 104 83 18 331 18 208 137 108 167 198 173 139 145 148 144 144 146 140 131 133 137 129 117 108 81 98 112 106 29 69 78 147 188 146 82 60 98 121 253 213 180 161 156 158 163 167 172 177 181 181 180 181 182 182 185 189 191 192 193 188 178 170 168 167 168 170 171 170 165 159 163 172 176 170 157 149
147 144 142 141 137 136 139 126 79 73 76 74 75 23 328 336 343 232 268 222 169 134 124 136 139 136 136 139 134 125 129 136 127 97 96 121 133 101 67 39 57 114 155 149 106 70 97 164 194 210 190 174 163 155 153 155 157 158 161 169 173 173 172 172 171 175 182 183 180 175 170 165 163 163 165 166 167 167 168 169 167 169 174 181 185 180 165
147 143 140 136 128 125 133 129 57 96 121 103 131 150 175 231 241 184 167 186 175 149 145 150 149 142 135 128 119 116 127 136 116 79 88 122 107 67 74 144 223 146 133 111 64 83 193 217 212 185 175 171 164 157 154 155 156 154 154 157 159 159 158 154 152 152 154 156 156 157 158 161 163 162 161 162 161 159 161 163 165 167 176 194 201 194 181
155 151 134 107 48 74 139 218 308 305 188 200 182 153 160 189 208 197 179 173 160 148 152 157 152 141 126 116 121 124 128 121 104 82 111 121 65 40 138 180 149 85 106 91 49 172 222 267 193 173 172 171 165 159 157 158 157 155 153 153 154 154 152 148 146 147 148 149 152 155 158 160 160 158 159 162 162 161 162 165 166 167 177 218 216 209 202
167 158 123 109 331 332 88 108 339 265 191 196 195 184 181 188 189 172 158 162 158 154 157 160 152 139 125 113 116 116 103 101 99 49 65 102 89 10 179 145 95 61 80 106 169 204 237 239 184 174 174 172 166 162 161 161 160 157 156 154 155 156 155 151 149 150 151 151 153 157 158 157 157 159 162 164 164 165 167 169 173 178 180 220 226 220 216
171 148 101 94 313 322 43 186 219 234 229 217 212 207 203 200 187 156 148 168 170 163 157 153 146 138 128 110 107 110 85 84 88 354 21 92 116 304 32 87 124 170 149 175 212 238 246 205 182 177 175 171 165 164 165 165 163 163 161 158 159 161 161 159 159 159 159 159 160 162 163 164 165 167 167 165 165 170 175 179 184 190 190 202 230 225 220
170 158 124 117 168 191 201 221 238 245 246 246 245 239 226 215 207 190 167 174 174 168 159 151 141 130 107 88 100 100 44 62 83 54 15 84 108 34 27 34 266 244 176 180 208 233 216 188 181 178 175 171 167 167 167 167 166 166 164 162 162 162 161 161 160 160 163 166 165 164 167 169 167 167 170 169 167 172 180 188 192 190 188 196 216 217 215
166 162 166 172 216 230 239 257 269 263 260 251 235 223 221 221 217 213 194 177 174 170 163 152 139 126 99 70 89 76 36 60 91 74 34 62 99 155 127 140 227 248 239 211 208 213 201 188 181 176 174 172 170 169 170 171 171 172 171 169 167 165 164 164 163 163 167 171 169 164 165 166 165 167 170 166 163 169 181 189 193 190 188 201 225 228 228
173 180 202 221 235 250 276 310 288 284 302 295 225 206 211 219 217 213 200 183 172 163 151 140 130 118 94 71 69 47 311 209 121 102 96 136 177 160 137 168 218 229 231 220 212 208 198 185 177 174 174 174 173 173 174 175 176 178 178 176 174 172 171 171 171 171 174 177 175 170 168 170 173 175 172 163 163 174 182 186 191 194 197 214 234 237 237
187 225 240 229 226 246 289 308 261 265 296 309 248 205 203 203 202 196 184 175 166 154 139 136 131 90 63 75 98 108 172 148 107 103 174 213 176 136 148 210 231 225 213 208 209 206 193 181 176 175 175 175 176 178 179 179 180 182 181 178 176 174 173 173 175 176 178 179 179 179 178 178 180 178 170 164 168 178 181 184 193 200 207 225 237 235 230
200 232 244 238 244 258 274 283 280 278 283 279 228 196 187 184 183 178 172 168 163 153 140 139 127 91 80 158 162 129 110 98 81 122 211 222 194 169 187 215 225 217 210 209 205 195 186 181 178 178 178 179 179 180 182 182 182 182 181 179 178 178 179 178 177 176 177 179 180 181 182 180 178 177 176 179 187 192 189 189 193 199 212 234 238 230 224